Oelwein, IA

3:58 PM CDT on March 25, 2017 (GMT -0500)
Oelwein Municipal

Weather History for KOLZ - May, 2013

Change the Weather History Date:

Sunday, May 26, 2013

  Actual Average Record
Temperature  
Mean Temperature 50 °F -  
Max Temperature 55 °F 73 °F 91 °F (1978)
Min Temperature 46 °F 50 °F 32 °F (1961)
Degree Days  
Heating Degree Days 14    
Moisture  
Dew Point 48 °F    
Average Humidity 90    
Maximum Humidity 94    
Minimum Humidity 82    
Precipitation  
Precipitation 1.52 in - - ()
Sea Level Pressure  
Sea Level Pressure 30.15 in    
Wind  
Wind Speed 15 mph (ESE)    
Max Wind Speed 30 mph    
Max Gust Speed 38 mph    
Visibility 7 miles    
Events Rain    
Averages and records for this station are not official NWS values.
T = Trace of Precipitation, MM = Missing Value Source: NWS Daily Summary

Daily Weather History Graph

Daily Weather History Graph

Search for Another Location

Airport or City:

Trip Planner

Search our weather history database for the weather conditions in past years. The results will help you decide how hot, cold, wet, or windy it might be!

Date:

Astronomy

May. 26, 2013 Rise Set
Actual Time 5:35 AM CDT 8:34 PM CDT
Civil Twilight 5:02 AM CDT 9:08 PM CDT
Nautical Twilight 4:19 AM CDT 9:51 PM CDT
Astronomical Twilight 3:29 AM CDT 10:41 PM CDT
Moon 10:21 PM CDT (5/26) 7:05 AM CDT (5/26)
Length of Visible Light 16h 05m
Length of Day
14h 58m
Waning Gibbous, 96% of the Moon is Illuminated
May 26
Waning Gibbous
May 31
Last Quarter
Jun 8
New
Jun 16
First Quarter
Jun 23
Full

Hourly Weather History & Observations

Time (CDT) Temp. Windchill Dew Point Humidity Pressure Visibility Wind Dir Wind Speed Gust Speed Precip Events Conditions
12:15 AM 48.2 °F - 44.6 °F 87% 30.23 in 10.0 mi ESE 15.0 mph - N/A   Overcast
12:35 AM 48.2 °F - 44.6 °F 87% 30.23 in 10.0 mi ESE 13.8 mph 20.7 mph N/A   Overcast
12:55 AM 48.2 °F - 44.6 °F 87% 30.23 in 10.0 mi ESE 15.0 mph - N/A   Mostly Cloudy
1:15 AM 48.2 °F - 44.6 °F 87% 30.22 in 10.0 mi ESE 16.1 mph - N/A   Partly Cloudy
1:35 AM 48.2 °F - 44.6 °F 87% 30.22 in 10.0 mi ESE 16.1 mph - N/A   Partly Cloudy
1:55 AM 48.2 °F - 44.6 °F 87% 30.21 in 10.0 mi ESE 13.8 mph - N/A   Partly Cloudy
2:15 AM 48.2 °F - 44.6 °F 87% 30.21 in 10.0 mi ESE 12.7 mph - N/A   Clear
2:35 AM 48.2 °F - 44.6 °F 87% 30.21 in 10.0 mi ESE 11.5 mph - N/A   Clear
2:55 AM 48.2 °F - 44.6 °F 87% 30.20 in 10.0 mi SE 13.8 mph - N/A   Clear
3:15 AM 48.2 °F - 44.6 °F 87% 30.19 in 10.0 mi ESE 12.7 mph - N/A   Scattered Clouds
3:35 AM 48.2 °F - 44.6 °F 87% 30.19 in 10.0 mi SE 13.8 mph - N/A   Mostly Cloudy
3:55 AM 48.2 °F - 44.6 °F 87% 30.19 in 10.0 mi ESE 13.8 mph 20.7 mph N/A   Overcast
4:15 AM 48.2 °F - 42.8 °F 82% 30.18 in - ESE 12.7 mph 20.7 mph N/A   Overcast
4:35 AM 48.2 °F - 42.8 °F 82% 30.18 in 10.0 mi ESE 12.7 mph - N/A   Overcast
4:55 AM 48.2 °F - 42.8 °F 82% 30.18 in 10.0 mi ESE 15.0 mph 21.9 mph N/A   Overcast
5:15 AM 48.2 °F - 42.8 °F 82% 30.19 in 10.0 mi ESE 16.1 mph - N/A   Overcast
5:35 AM 48.2 °F - 42.8 °F 82% 30.19 in 10.0 mi ESE 12.7 mph - N/A   Overcast
5:55 AM 48.2 °F - 44.6 °F 87% 30.17 in 2.5 mi ESE 19.6 mph 26.5 mph 0.13 in Rain Rain
6:15 AM 46.4 °F 40.4 °F 44.6 °F 93% 30.19 in 1.5 mi ESE 13.8 mph 19.6 mph N/A Rain Rain
6:35 AM 46.4 °F 39.5 °F 42.8 °F 87% 30.20 in 3.0 mi ESE 17.3 mph - N/A   Overcast
6:55 AM 48.2 °F - 42.8 °F 82% 30.20 in 9.0 mi ESE 17.3 mph 25.3 mph 0.27 in   Overcast
7:15 AM 48.2 °F - 44.6 °F 87% 30.20 in 10.0 mi ESE 16.1 mph - N/A   Overcast
7:35 AM 48.2 °F - 44.6 °F 87% 30.20 in 9.0 mi ESE 17.3 mph - N/A   Overcast
7:55 AM 48.2 °F - 44.6 °F 87% 30.20 in 8.0 mi East 17.3 mph 23.0 mph N/A Rain Light Rain
8:15 AM 48.2 °F - 44.6 °F 87% 30.19 in 3.0 mi ESE 19.6 mph 26.5 mph N/A   Overcast
8:35 AM 48.2 °F - 44.6 °F 87% 30.19 in 3.0 mi ESE 17.3 mph 23.0 mph N/A   Overcast
8:55 AM 48.2 °F - 44.6 °F 87% 30.22 in 4.0 mi East 11.5 mph 19.6 mph 0.17 in Rain Light Rain
9:15 AM 48.2 °F - 44.6 °F 87% 30.25 in 3.0 mi East 9.2 mph 15.0 mph N/A Rain Light Rain
9:35 AM 48.2 °F - 44.6 °F 87% 30.25 in 3.0 mi East 10.4 mph - N/A Rain Light Rain
9:55 AM 46.4 °F 41.5 °F 44.6 °F 93% 30.24 in 3.0 mi East 10.4 mph - 0.26 in Rain Light Rain
10:15 AM 46.4 °F 40.7 °F 44.6 °F 93% 30.23 in 3.0 mi East 12.7 mph - N/A Rain Light Rain
10:35 AM 46.4 °F 40.7 °F 44.6 °F 93% 30.23 in 3.0 mi East 12.7 mph - N/A   Overcast
10:55 AM 46.4 °F 39.2 °F 44.6 °F 93% 30.21 in 3.0 mi ESE 18.4 mph - 0.29 in Rain Light Rain
11:15 AM 46.4 °F 39.0 °F 44.6 °F 93% 30.20 in 3.0 mi ESE 19.6 mph - N/A   Overcast
11:35 AM 48.2 °F - 44.6 °F 87% 30.21 in 6.0 mi ESE 16.1 mph - N/A Rain Light Rain
11:55 AM 48.2 °F - 44.6 °F 87% 30.20 in 5.0 mi ESE 16.1 mph - 0.15 in   Overcast
12:15 PM 48.2 °F - 46.4 °F 93% 30.10 in 2.5 mi SE 29.9 mph 36.8 mph N/A Rain Light Rain
12:35 PM 48.2 °F - 46.4 °F 93% 30.09 in 4.0 mi SE 27.6 mph 38.0 mph N/A Rain Light Rain
12:55 PM 48.2 °F - 46.4 °F 93% 30.10 in 5.0 mi ESE 17.3 mph 26.5 mph 0.17 in Rain Light Rain
1:15 PM 50.0 °F - 48.2 °F 94% 30.04 in 10.0 mi ESE 29.9 mph 38.0 mph N/A   Mostly Cloudy
1:35 PM 50.0 °F - 48.2 °F 94% 30.06 in 10.0 mi ESE 25.3 mph 33.4 mph N/A   Mostly Cloudy
1:55 PM 50.0 °F - 48.2 °F 94% 30.07 in 9.0 mi East 19.6 mph 29.9 mph N/A   Overcast
2:15 PM 50.0 °F - 48.2 °F 94% 30.16 in 10.0 mi SE 8.1 mph 16.1 mph N/A   Overcast
2:35 PM 51.8 °F - 48.2 °F 88% 30.16 in 9.0 mi ESE 8.1 mph - N/A   Overcast
2:55 PM 51.8 °F - 50.0 °F 94% 30.16 in 9.0 mi East 8.1 mph - N/A   Overcast
3:15 PM 51.8 °F - 50.0 °F 94% 30.15 in 9.0 mi East 10.4 mph - N/A   Overcast
3:35 PM 53.6 °F - 50.0 °F 88% 30.14 in 10.0 mi East 13.8 mph - N/A   Overcast
3:55 PM 53.6 °F - 50.0 °F 88% 30.14 in 9.0 mi East 13.8 mph - N/A   Overcast
4:15 PM 53.6 °F - 50.0 °F 88% 30.11 in 10.0 mi East 18.4 mph - N/A   Overcast
4:35 PM 53.6 °F - 50.0 °F 88% 30.12 in 8.0 mi East 12.7 mph 19.6 mph N/A   Overcast
4:55 PM 53.6 °F - 50.0 °F 88% 30.12 in 3.0 mi East 16.1 mph - 0.08 in Rain Light Rain
5:15 PM 53.6 °F - 51.8 °F 94% 30.07 in 6.0 mi ESE 20.7 mph - N/A   Overcast
5:35 PM 53.6 °F - 51.8 °F 94% 30.08 in 6.0 mi East 15.0 mph 23.0 mph N/A   Overcast
5:55 PM 53.6 °F - 51.8 °F 94% 30.05 in 5.0 mi ESE 17.3 mph 24.2 mph N/A   Overcast
6:15 PM 53.6 °F - 51.8 °F 94% 30.07 in 6.0 mi East 16.1 mph - N/A   Overcast
6:35 PM 53.6 °F - 51.8 °F 94% 30.08 in 6.0 mi ESE 12.7 mph 23.0 mph N/A   Overcast
6:55 PM 53.6 °F - 51.8 °F 94% 30.10 in 6.0 mi ESE 13.8 mph 19.6 mph N/A   Overcast
7:15 PM 53.6 °F - 51.8 °F 94% 30.10 in 6.0 mi East 15.0 mph - N/A   Overcast
7:35 PM 53.6 °F - 51.8 °F 94% 30.08 in 5.0 mi East 16.1 mph 24.2 mph N/A   Overcast
7:55 PM 53.6 °F - 51.8 °F 94% 30.08 in 5.0 mi East 16.1 mph - N/A   Overcast
8:15 PM 53.6 °F - 51.8 °F 94% 30.08 in 5.0 mi East 16.1 mph - N/A   Overcast
8:35 PM 53.6 °F - 51.8 °F 94% 30.06 in 5.0 mi East 17.3 mph - N/A   Overcast
8:55 PM 53.6 °F - 51.8 °F 94% 30.04 in 6.0 mi East 17.3 mph - N/A   Overcast
9:15 PM 53.6 °F - 51.8 °F 94% 30.04 in 7.0 mi East 17.3 mph 24.2 mph N/A   Overcast
9:35 PM 55.4 °F - 53.6 °F 94% 30.07 in 6.0 mi East 15.0 mph 24.2 mph N/A   Overcast
9:55 PM 55.4 °F - 53.6 °F 94% 30.07 in 6.0 mi East 16.1 mph - N/A   Overcast
10:15 PM 55.4 °F - 53.6 °F 94% 30.08 in 6.0 mi East 13.8 mph 20.7 mph N/A   Overcast
10:35 PM 55.4 °F - 53.6 °F 94% 30.08 in 5.0 mi East 15.0 mph - N/A   Overcast
10:55 PM 55.4 °F - 53.6 °F 94% 30.08 in 6.0 mi East 15.0 mph - N/A   Overcast
11:15 PM 55.4 °F - 53.6 °F 94% 30.06 in 6.0 mi East 13.8 mph 23.0 mph N/A   Overcast
11:35 PM 55.4 °F - 53.6 °F 94% 30.04 in 6.0 mi East 16.1 mph 21.9 mph N/A   Overcast
11:55 PM 55.4 °F - 53.6 °F 94% 30.04 in 6.0 mi ESE 16.1 mph 24.2 mph N/A   Overcast